This demonstration page uses our WeatherBlox Daily Observations layout. Learn more.

Left ArrowRight Arrow

39.01783, -85.05884

Hourly Observations for November 24, 2018

Temp ( °F °C ) Dew Point ( °F °C ) Humidity (%) Winds ( mph kmh ) Pressure ( in mb ) Visibility ( mi km ) Precip ( " mm )
12:52 am 00:52 Cloudy with Light Rain 46 7.8 43 6.1 89 89 SSE 15 24 29.81 1010 10 16 0.11 2.79
1:01 am 01:01 Cloudy with Light Rain 46 7.8 43 6.1 89 89 SSE 15 24 29.80 1009 9 14 0.00 0.03
1:52 am 01:52 Cloudy with Rain 45 7.2 44 6.7 97 97 SSE 13 20 29.77 1008 7 11 0.05 1.27
2:52 am 02:52 Cloudy with Light Rain 45 7.2 44 6.7 97 97 SSE 14 22 29.74 1007 7 11 0.07 1.78
3:31 am 03:31 Cloudy with Rain 45 7.2 44 6.7 97 97 SSE 17 28 29.71 1006 6 10 0.06 1.52
3:52 am 03:52 Cloudy with Light Rain 45 7.2 44 6.7 97 97 SSE 17 28 29.71 1006 5 8 0.10 2.54
3:55 am 03:55 Cloudy with Light Rain 45 7.2 44 6.7 97 97 S 15 24 29.71 1006 6 10 0.00 0.03
4:27 am 04:27 Cloudy with Light Rain 46 7.8 45 7.2 96 96 S 15 24 29.71 1006 5 8 0.02 0.51
4:52 am 04:52 Cloudy with Light Rain 46 7.8 45 7.2 96 96 S 15 24 29.69 1005 9 14 0.03 0.76
5:52 am 05:52 Cloudy with Light Rain 47 8.3 46 7.8 97 97 S 14 22 29.67 1005 5 8 0.01 0.25
6:52 am 06:52 Cloudy with Light Rain 47 8.3 47 8.3 100 100 S 13 20 29.67 1005 5 8 0.01 0.25
7:37 am 07:37 Cloudy with Light Rain 47 8.3 47 8.3 100 100 S 12 19 29.68 1005 2 3 0.01 0.25
7:52 am 07:52 Cloudy with Light Rain 47 8.3 47 8.3 100 100 S 13 20 29.67 1005 2 3 0.01 0.25
8:20 am 08:20 Cloudy with Light Rain 48 8.9 47 8.3 96 96 S 12 19 29.68 1005 2 2 0.01 0.25
8:52 am 08:52 Cloudy with Mist and Fog 48 8.9 47 8.3 96 96 SSW 9 15 29.67 1005 2 3 0.01 0.25
9:36 am 09:36 Cloudy 48 8.9 48 8.9 100 100 SSW 9 15 29.68 1005 8 13 0.00 0.00
9:52 am 09:52 Cloudy with Light Rain 48 8.9 48 8.9 100 100 SSW 12 19 29.68 1005 3 5 0.00 0.03
10:03 am 10:03 Cloudy with Mist and Fog 48 8.9 48 8.9 100 100 SSW 10 17 29.68 1005 2 3 0.01 0.25
10:52 am 10:52 Cloudy 49 9.4 48 8.9 97 97 SW 10 17 29.69 1005 7 11 0.01 0.25
11:52 am 11:52 Cloudy 50 10 49 9.4 96 96 SSW 13 20 29.67 1005 8 13 0.00 0.00
12:52 pm 12:52 Cloudy with Light Rain 51 10.6 49 9.4 92 92 SW 9 15 29.67 1005 9 14 0.00 0.03
1:52 pm 13:52 Mostly Cloudy 53 11.7 49 9.4 86 86 SW 9 15 29.66 1004 10 16 0.00 0.03
2:26 pm 14:26 Partly Cloudy 54 12.2 48 8.9 80 80 SW 15 24 29.65 1004 10 16 0.00 0.00
2:52 pm 14:52 Mostly Cloudy 53 11.7 47 8.3 80 80 SW 15 24 29.67 1005 10 16 0.00 0.00
3:52 pm 15:52 Mostly Sunny 54 12.2 46 7.8 75 75 SW 17 28 29.67 1005 10 16 0.00 0.00
4:52 pm 16:52 Mostly Sunny 52 11.1 46 7.8 80 80 SW 9 15 29.70 1006 10 16 0.00 0.00
5:52 pm 17:52 Mostly Clear 50 10 45 7.2 83 83 SSW 9 15 29.72 1006 10 16 0.00 0.00
6:52 pm 18:52 Mostly Clear 49 9.4 45 7.2 86 86 SSW 8 13 29.73 1007 8 13 0.00 0.00
7:52 pm 19:52 Mostly Clear 48 8.9 45 7.2 89 89 SSW 9 15 29.75 1007 8 13 0.00 0.00
8:52 pm 20:52 Mostly Clear 49 9.4 45 7.2 86 86 SW 9 15 29.76 1008 9 14 0.00 0.00
9:52 pm 21:52 Mostly Clear 47 8.3 44 6.7 90 90 SW 7 11 29.78 1009 8 13 0.00 0.00
10:52 pm 22:52 Mostly Clear 44 6.7 43 6.1 96 96 SSW 8 13 29.80 1009 10 16 0.00 0.00
11:52 pm 23:52 Mostly Clear 45 7.2 44 6.7 97 97 SSW 8 13 29.81 1009 10 16 0.00 0.00

Powered by AerisWeather